Location: Moy Burn
(57.3833°N, 4.0667°W)
Time: 09:31:10
(UTC+00:00)

ALOS 2 - Pass Details

Date: 08 August 2020
Orbit: 630 x 632 km, 97.9° (Epoch: 19 September)

Event Time Altitude Azimuth Distance (km) Brightness Sun altitude
Exits shadow 22:27:30 16° 120° (ESE) 1,683 4.3 -13.1°
Maximum altitude 22:30:33 35° 62° (ENE) 1,038 3.7 -13.3°
Drops below altitude 10° 22:34:33 10° 357° (N) 2,030 6.3 -13.5°
Sets 22:36:53 0° 348° (NNW) 2,943 7.7 -13.7°
